29.03.2024;12:15;14,10
29.03.2024;12:00;14,10
29.03.2024;11:45;14,10
29.03.2024;11:30;14,10
29.03.2024;11:15;14,10
29.03.2024;11:00;14,10
29.03.2024;10:45;13,90
29.03.2024;10:30;13,80
29.03.2024;10:15;13,70
29.03.2024;10:00;13,60
29.03.2024;09:45;13,40
29.03.2024;09:30;13,20
29.03.2024;09:15;13,20
29.03.2024;09:00;13,20
29.03.2024;08:45;13,10
29.03.2024;08:30;13,10
29.03.2024;08:15;13,10
29.03.2024;08:00;13,00
29.03.2024;07:45;13,00
29.03.2024;07:30;13,00
29.03.2024;07:15;13,00
29.03.2024;07:00;13,00
29.03.2024;06:45;13,00
29.03.2024;06:30;13,00
29.03.2024;06:15;13,00
29.03.2024;06:00;13,00
29.03.2024;05:45;13,00
29.03.2024;05:30;12,90
29.03.2024;05:15;12,90
29.03.2024;05:00;13,00
29.03.2024;04:45;13,00
29.03.2024;04:30;13,00
29.03.2024;04:15;13,00
29.03.2024;04:00;13,00
29.03.2024;03:45;13,00
29.03.2024;03:30;13,00
29.03.2024;03:15;13,00
29.03.2024;03:00;13,00
29.03.2024;02:45;13,00
29.03.2024;02:30;13,00
29.03.2024;02:15;13,00
29.03.2024;02:00;13,00
29.03.2024;01:45;13,00
29.03.2024;01:30;13,00
29.03.2024;01:15;13,00
29.03.2024;01:00;13,00
29.03.2024;00:45;13,00
29.03.2024;00:30;13,00
29.03.2024;00:15;13,00
29.03.2024;00:00;13,10
28.03.2024;23:45;13,10
28.03.2024;23:30;13,10
28.03.2024;23:15;13,10
28.03.2024;23:00;13,10
28.03.2024;22:45;13,10
28.03.2024;22:30;13,20
28.03.2024;22:15;13,20
28.03.2024;22:00;13,20
28.03.2024;21:45;13,20
28.03.2024;21:30;13,30
28.03.2024;21:15;13,30
28.03.2024;21:00;13,30
28.03.2024;20:45;13,40
28.03.2024;20:30;13,40
28.03.2024;20:15;13,50
28.03.2024;20:00;13,50
28.03.2024;19:45;13,60
28.03.2024;19:30;13,60
28.03.2024;19:15;13,70
28.03.2024;19:00;13,70
28.03.2024;18:45;13,80
28.03.2024;18:30;13,90
28.03.2024;18:15;14,00
28.03.2024;18:00;14,00
28.03.2024;17:45;14,00
28.03.2024;17:30;14,10
28.03.2024;17:15;14,00
28.03.2024;17:00;14,00
28.03.2024;16:45;13,90
28.03.2024;16:30;13,90
28.03.2024;16:15;13,90
28.03.2024;16:00;13,90
28.03.2024;15:45;13,90
28.03.2024;15:30;13,90
28.03.2024;15:15;13,90
28.03.2024;15:00;13,90
28.03.2024;14:45;13,90
28.03.2024;14:30;13,90
28.03.2024;14:15;13,90
28.03.2024;14:00;14,00
28.03.2024;13:45;14,00
28.03.2024;13:30;14,00
28.03.2024;13:15;14,00
28.03.2024;13:00;14,00
28.03.2024;12:45;14,00
28.03.2024;12:30;14,00
28.03.2024;12:15;14,00
28.03.2024;12:00;14,00
28.03.2024;11:45;14,00
28.03.2024;11:30;14,00
28.03.2024;11:15;14,00
28.03.2024;11:00;14,00
28.03.2024;10:45;14,10
28.03.2024;10:30;14,10
28.03.2024;10:15;14,10
28.03.2024;10:00;14,10
28.03.2024;09:45;14,10
28.03.2024;09:30;14,10
28.03.2024;09:15;14,10
28.03.2024;09:00;14,10
28.03.2024;08:45;14,10
28.03.2024;08:30;13,80
28.03.2024;08:15;13,70
28.03.2024;08:00;13,50
28.03.2024;07:45;13,40
28.03.2024;07:30;13,30
28.03.2024;07:15;13,20
28.03.2024;07:00;13,10
28.03.2024;06:45;13,00
28.03.2024;06:30;13,00
28.03.2024;06:15;13,00
28.03.2024;06:00;13,00
28.03.2024;05:45;13,00
28.03.2024;05:30;13,00
28.03.2024;05:15;13,00
28.03.2024;05:00;13,00
28.03.2024;04:45;13,00
28.03.2024;04:30;13,00
28.03.2024;04:15;13,00
28.03.2024;04:00;13,00
28.03.2024;03:45;13,00
28.03.2024;03:30;13,00
28.03.2024;03:15;13,00
28.03.2024;03:00;13,00
28.03.2024;02:45;13,00
28.03.2024;02:30;13,00
28.03.2024;02:15;13,00
28.03.2024;02:00;13,00
28.03.2024;01:45;13,00
28.03.2024;01:30;13,00
28.03.2024;01:15;13,00
28.03.2024;01:00;13,00
28.03.2024;00:45;13,00
28.03.2024;00:30;13,00
28.03.2024;00:15;13,00
28.03.2024;00:00;13,00
27.03.2024;23:45;13,10
27.03.2024;23:30;13,10
27.03.2024;23:15;13,10
27.03.2024;23:00;13,10
27.03.2024;22:45;13,10
27.03.2024;22:30;13,10
27.03.2024;22:15;13,20
27.03.2024;22:00;13,20
27.03.2024;21:45;13,20
27.03.2024;21:30;13,20
27.03.2024;21:15;13,30
27.03.2024;21:00;13,30
27.03.2024;20:45;13,40
27.03.2024;20:30;13,40
27.03.2024;20:15;13,40
27.03.2024;20:00;13,50
27.03.2024;19:45;13,50
27.03.2024;19:30;13,60
27.03.2024;19:15;13,60
27.03.2024;19:00;13,70
27.03.2024;18:45;13,70
27.03.2024;18:30;13,80
27.03.2024;18:15;13,80
27.03.2024;18:00;13,90
27.03.2024;17:45;13,90
27.03.2024;17:30;14,00
27.03.2024;17:15;14,00
27.03.2024;17:00;14,10
27.03.2024;16:45;14,10
27.03.2024;16:30;14,10
27.03.2024;16:15;14,10
27.03.2024;16:00;14,10
27.03.2024;15:45;14,10
27.03.2024;15:30;14,10
27.03.2024;15:15;14,10
27.03.2024;15:00;14,10
27.03.2024;14:45;14,10
27.03.2024;14:30;14,10
27.03.2024;14:15;14,10
27.03.2024;14:00;14,10
27.03.2024;13:45;14,10
27.03.2024;13:30;14,10
27.03.2024;13:15;14,10
27.03.2024;13:00;14,10
27.03.2024;12:45;14,10
27.03.2024;12:30;14,10
27.03.2024;12:15;14,10
27.03.2024;12:00;14,10
27.03.2024;11:45;14,10
27.03.2024;11:30;14,10
27.03.2024;11:15;14,10
27.03.2024;11:00;14,10
27.03.2024;10:45;14,10
27.03.2024;10:30;14,10
27.03.2024;10:15;14,10
27.03.2024;10:00;14,10
27.03.2024;09:45;14,10
27.03.2024;09:30;14,10
27.03.2024;09:15;13,90
27.03.2024;09:00;13,60
27.03.2024;08:45;13,50
27.03.2024;08:30;13,30
27.03.2024;08:15;13,30
27.03.2024;08:00;13,20
27.03.2024;07:45;13,10
27.03.2024;07:30;13,00
27.03.2024;07:15;13,00
27.03.2024;07:00;13,00
27.03.2024;06:45;13,00
27.03.2024;06:30;12,90
27.03.2024;06:15;13,00
27.03.2024;06:00;13,00
27.03.2024;05:45;12,90
27.03.2024;05:30;12,90
27.03.2024;05:15;12,90
27.03.2024;05:00;13,00
27.03.2024;04:45;13,00
27.03.2024;04:30;13,00
27.03.2024;04:15;13,00
27.03.2024;04:00;13,00
27.03.2024;03:45;13,00
27.03.2024;03:30;13,00
27.03.2024;03:15;13,00
27.03.2024;03:00;13,00
27.03.2024;02:45;13,00
27.03.2024;02:30;13,00
27.03.2024;02:15;13,00
27.03.2024;02:00;13,00
27.03.2024;01:45;13,00
27.03.2024;01:30;13,00
27.03.2024;01:15;13,00
27.03.2024;01:00;13,00
27.03.2024;00:45;13,00
27.03.2024;00:30;13,10
27.03.2024;00:15;13,10
27.03.2024;00:00;13,10
26.03.2024;23:45;13,10
26.03.2024;23:30;13,10
26.03.2024;23:15;13,10
26.03.2024;23:00;13,20
26.03.2024;22:45;13,20
26.03.2024;22:30;13,30
26.03.2024;22:15;13,30
26.03.2024;22:00;13,30
26.03.2024;21:45;13,40
26.03.2024;21:30;13,40
26.03.2024;21:15;13,50
26.03.2024;21:00;13,50
26.03.2024;20:45;13,50
26.03.2024;20:30;13,60
26.03.2024;20:15;13,60
26.03.2024;20:00;13,70
26.03.2024;19:45;13,70
26.03.2024;19:30;13,80
26.03.2024;19:15;13,80
26.03.2024;19:00;13,90
26.03.2024;18:45;13,90
26.03.2024;18:30;14,00
26.03.2024;18:15;14,10
26.03.2024;18:00;14,10
26.03.2024;17:45;14,10
26.03.2024;17:30;14,10
26.03.2024;17:15;14,10
26.03.2024;17:00;14,10
26.03.2024;16:45;14,00
26.03.2024;16:30;14,00
26.03.2024;16:15;14,00
26.03.2024;16:00;14,00
26.03.2024;15:45;14,00
26.03.2024;15:30;14,10
26.03.2024;15:15;14,10
26.03.2024;15:00;14,10
26.03.2024;14:45;14,10
26.03.2024;14:30;14,10
26.03.2024;14:15;14,10
26.03.2024;14:00;14,10
26.03.2024;13:45;14,10
26.03.2024;13:30;14,10
26.03.2024;13:15;14,10
26.03.2024;13:00;14,10
26.03.2024;12:45;14,10
26.03.2024;12:30;14,10
26.03.2024;12:15;14,10
26.03.2024;12:00;14,10
26.03.2024;11:45;14,10
26.03.2024;11:30;14,10
26.03.2024;11:15;14,10
26.03.2024;11:00;14,10
26.03.2024;10:45;14,10
26.03.2024;10:30;14,10
26.03.2024;10:15;14,10
26.03.2024;10:00;14,10
26.03.2024;09:45;14,10
26.03.2024;09:30;14,10
26.03.2024;09:15;14,10
26.03.2024;09:00;14,10
26.03.2024;08:45;14,10
26.03.2024;08:30;14,10
26.03.2024;08:15;13,70
26.03.2024;08:00;13,40
26.03.2024;07:45;13,30
26.03.2024;07:30;13,20
26.03.2024;07:15;13,10
26.03.2024;07:00;13,00
26.03.2024;06:45;13,00
26.03.2024;06:30;12,90
26.03.2024;06:15;12,90
26.03.2024;06:00;12,90
26.03.2024;05:45;12,90
26.03.2024;05:30;12,90
26.03.2024;05:15;12,90
26.03.2024;05:00;13,00
26.03.2024;04:45;13,00
26.03.2024;04:30;12,90
26.03.2024;04:15;13,00
26.03.2024;04:00;13,00
26.03.2024;03:45;13,00
26.03.2024;03:30;13,00
26.03.2024;03:15;13,00
26.03.2024;03:00;13,00
26.03.2024;02:45;13,00
26.03.2024;02:30;13,00
26.03.2024;02:15;13,00
26.03.2024;02:00;13,00
26.03.2024;01:45;13,00
26.03.2024;01:30;13,00
26.03.2024;01:15;13,00
26.03.2024;01:00;13,00
26.03.2024;00:45;13,00
26.03.2024;00:30;13,00
26.03.2024;00:15;13,00
26.03.2024;00:00;13,10
25.03.2024;23:45;13,10
25.03.2024;23:30;13,10
25.03.2024;23:15;13,10
25.03.2024;23:00;13,10
25.03.2024;22:45;13,20
25.03.2024;22:30;13,20
25.03.2024;22:15;13,20
25.03.2024;22:00;13,20
25.03.2024;21:45;13,30
25.03.2024;21:30;13,30
25.03.2024;21:15;13,40
25.03.2024;21:00;13,40
25.03.2024;20:45;13,40
25.03.2024;20:30;13,50
25.03.2024;20:15;13,50
25.03.2024;20:00;13,60
25.03.2024;19:45;13,60
25.03.2024;19:30;13,60
25.03.2024;19:15;13,70
25.03.2024;19:00;13,70
25.03.2024;18:45;13,80
25.03.2024;18:30;13,90
25.03.2024;18:15;13,90
25.03.2024;18:00;14,00
25.03.2024;17:45;14,10
25.03.2024;17:30;14,00
25.03.2024;17:15;14,00
25.03.2024;17:00;14,10
25.03.2024;16:45;14,10
25.03.2024;16:30;14,10
25.03.2024;16:15;14,10
25.03.2024;16:00;14,10
25.03.2024;15:45;14,10
25.03.2024;15:30;14,10
25.03.2024;15:15;14,10
25.03.2024;15:00;14,10
25.03.2024;14:45;14,10
25.03.2024;14:30;14,10
25.03.2024;14:15;14,10
25.03.2024;14:00;14,10
25.03.2024;13:45;14,10
25.03.2024;13:30;14,10
25.03.2024;13:15;14,10
25.03.2024;13:00;14,10
25.03.2024;12:45;14,10
25.03.2024;12:30;14,10
25.03.2024;12:15;14,10
25.03.2024;12:00;14,10
25.03.2024;11:45;14,10
25.03.2024;11:30;14,10
25.03.2024;11:15;14,10
25.03.2024;11:00;14,10
25.03.2024;10:45;14,10
25.03.2024;10:30;14,10
25.03.2024;10:15;14,00
25.03.2024;10:00;13,90
25.03.2024;09:45;13,70
25.03.2024;09:30;13,60
25.03.2024;09:15;13,50
25.03.2024;09:00;13,40
25.03.2024;08:45;13,20
25.03.2024;08:30;13,20
25.03.2024;08:15;13,10
25.03.2024;08:00;13,10
25.03.2024;07:45;13,00
25.03.2024;07:30;13,00
25.03.2024;07:15;13,00
25.03.2024;07:00;13,00
25.03.2024;06:45;13,00
25.03.2024;06:30;13,00
25.03.2024;06:15;13,00
25.03.2024;06:00;13,00
25.03.2024;05:45;13,00
25.03.2024;05:30;12,90
25.03.2024;05:15;12,90
25.03.2024;05:00;13,00
25.03.2024;04:45;13,00
25.03.2024;04:30;13,00
25.03.2024;04:15;13,00
25.03.2024;04:00;13,00
25.03.2024;03:45;13,00
25.03.2024;03:30;13,00
25.03.2024;03:15;13,00
25.03.2024;03:00;13,00
25.03.2024;02:45;13,00
25.03.2024;02:30;13,00
25.03.2024;02:15;13,00
25.03.2024;02:00;13,00
25.03.2024;01:45;13,00
25.03.2024;01:30;13,00
25.03.2024;01:15;13,00
25.03.2024;01:00;13,00
25.03.2024;00:45;13,00
25.03.2024;00:30;13,00
25.03.2024;00:15;13,10
25.03.2024;00:00;13,10
24.03.2024;23:45;13,10
24.03.2024;23:30;13,10
24.03.2024;23:15;13,10
24.03.2024;23:00;13,10
24.03.2024;22:45;13,10
24.03.2024;22:30;13,20
24.03.2024;22:15;13,20
24.03.2024;22:00;13,20
24.03.2024;21:45;13,30
24.03.2024;21:30;13,30
24.03.2024;21:15;13,30
24.03.2024;21:00;13,40
24.03.2024;20:45;13,40
24.03.2024;20:30;13,40
24.03.2024;20:15;13,50
24.03.2024;20:00;13,50
24.03.2024;19:45;13,60
24.03.2024;19:30;13,60
24.03.2024;19:15;13,70
24.03.2024;19:00;13,70
24.03.2024;18:45;13,80
24.03.2024;18:30;13,80
24.03.2024;18:15;13,90
24.03.2024;18:00;13,90
24.03.2024;17:45;14,00
24.03.2024;17:30;14,00
24.03.2024;17:15;14,00
24.03.2024;17:00;14,10
24.03.2024;16:45;14,10
24.03.2024;16:30;14,10
24.03.2024;16:15;14,10
24.03.2024;16:00;14,10
24.03.2024;15:45;14,10
24.03.2024;15:30;14,10
24.03.2024;15:15;14,10
24.03.2024;15:00;14,10
24.03.2024;14:45;14,10
24.03.2024;14:30;14,10
24.03.2024;14:15;14,10
24.03.2024;14:00;14,10
24.03.2024;13:45;14,10
24.03.2024;13:30;14,10
24.03.2024;13:15;14,10
24.03.2024;13:00;14,10
24.03.2024;12:45;14,10
24.03.2024;12:30;14,10
24.03.2024;12:15;14,10
24.03.2024;12:00;14,10
24.03.2024;11:45;14,10
24.03.2024;11:30;14,10
24.03.2024;11:15;14,10
24.03.2024;11:00;14,10
24.03.2024;10:45;14,10
24.03.2024;10:30;14,10
24.03.2024;10:15;13,90
24.03.2024;10:00;13,70
24.03.2024;09:45;13,60
24.03.2024;09:30;13,50
24.03.2024;09:15;13,40
24.03.2024;09:00;13,30
24.03.2024;08:45;13,20
24.03.2024;08:30;13,10
24.03.2024;08:15;13,10
24.03.2024;08:00;13,10
24.03.2024;07:45;13,00
24.03.2024;07:30;13,00
24.03.2024;07:15;13,00
24.03.2024;07:00;13,00
24.03.2024;06:45;13,00
24.03.2024;06:30;13,00
24.03.2024;06:15;13,00
24.03.2024;06:00;13,00
24.03.2024;05:45;13,00
24.03.2024;05:30;13,00
24.03.2024;05:15;13,00
24.03.2024;05:00;13,00
24.03.2024;04:45;13,00
24.03.2024;04:30;13,00
24.03.2024;04:15;13,00
24.03.2024;04:00;13,00
24.03.2024;03:45;13,00
24.03.2024;03:30;13,00
24.03.2024;03:15;13,00
24.03.2024;03:00;13,00
24.03.2024;02:45;13,00
24.03.2024;02:30;13,00
24.03.2024;02:15;13,00
24.03.2024;02:00;13,00
24.03.2024;01:45;13,00
24.03.2024;01:30;13,00
24.03.2024;01:15;13,10
24.03.2024;01:00;13,10
24.03.2024;00:45;13,10
24.03.2024;00:30;13,10
24.03.2024;00:15;13,10
24.03.2024;00:00;13,10
23.03.2024;23:45;13,10
23.03.2024;23:30;13,10
23.03.2024;23:15;13,10
23.03.2024;23:00;13,10
23.03.2024;22:45;13,20
23.03.2024;22:30;13,20
23.03.2024;22:15;13,20
23.03.2024;22:00;13,20
23.03.2024;21:45;13,20
23.03.2024;21:30;13,30
23.03.2024;21:15;13,30
23.03.2024;21:00;13,30
23.03.2024;20:45;13,40
23.03.2024;20:30;13,40
23.03.2024;20:15;13,50
23.03.2024;20:00;13,50
23.03.2024;19:45;13,60
23.03.2024;19:30;13,60
23.03.2024;19:15;13,70
23.03.2024;19:00;13,70
23.03.2024;18:45;13,80
23.03.2024;18:30;13,90
23.03.2024;18:15;13,90
23.03.2024;18:00;14,00
23.03.2024;17:45;14,10
23.03.2024;17:30;14,10
23.03.2024;17:15;14,10
23.03.2024;17:00;14,10
23.03.2024;16:45;14,10
23.03.2024;16:30;14,10
23.03.2024;16:15;14,10
23.03.2024;16:00;14,10
23.03.2024;15:45;14,10
23.03.2024;15:30;14,10
23.03.2024;15:15;14,10
23.03.2024;15:00;14,10
23.03.2024;14:45;14,10
23.03.2024;14:30;14,10
23.03.2024;14:15;14,10
23.03.2024;14:00;14,10
23.03.2024;13:45;14,10
23.03.2024;13:30;14,10
23.03.2024;13:15;14,10
23.03.2024;13:00;14,10
23.03.2024;12:45;14,10
23.03.2024;12:30;14,10
23.03.2024;12:15;14,10
23.03.2024;12:00;14,10
23.03.2024;11:45;14,10
23.03.2024;11:30;14,10
23.03.2024;11:15;14,10
23.03.2024;11:00;14,10
23.03.2024;10:45;14,10
23.03.2024;10:30;14,10
23.03.2024;10:15;14,10
23.03.2024;10:00;14,10
23.03.2024;09:45;13,90
23.03.2024;09:30;13,80
23.03.2024;09:15;13,60
23.03.2024;09:00;13,50
23.03.2024;08:45;13,40
23.03.2024;08:30;13,40
23.03.2024;08:15;13,30
23.03.2024;08:00;13,20
23.03.2024;07:45;13,10
23.03.2024;07:30;13,10
23.03.2024;07:15;13,00
23.03.2024;07:00;13,00
23.03.2024;06:45;13,00
23.03.2024;06:30;13,00
23.03.2024;06:15;13,00
23.03.2024;06:00;13,00
23.03.2024;05:45;13,00
23.03.2024;05:30;13,00
23.03.2024;05:15;13,00
23.03.2024;05:00;13,00
23.03.2024;04:45;13,00
23.03.2024;04:30;13,00
23.03.2024;04:15;13,00
23.03.2024;04:00;13,00
23.03.2024;03:45;13,00
23.03.2024;03:30;13,00
23.03.2024;03:15;13,00
23.03.2024;03:00;13,00
23.03.2024;02:45;13,00
23.03.2024;02:30;13,00
23.03.2024;02:15;13,00
23.03.2024;02:00;13,00
23.03.2024;01:45;13,00
23.03.2024;01:30;13,00
23.03.2024;01:15;13,00
23.03.2024;01:00;13,00
23.03.2024;00:45;13,00
23.03.2024;00:30;13,00
23.03.2024;00:15;13,10
23.03.2024;00:00;13,10
22.03.2024;23:45;13,10
22.03.2024;23:30;13,10
22.03.2024;23:15;13,10
22.03.2024;23:00;13,10
22.03.2024;22:45;13,10
22.03.2024;22:30;13,10
22.03.2024;22:15;13,10
22.03.2024;22:00;13,20
22.03.2024;21:45;13,20
22.03.2024;21:30;13,20
22.03.2024;21:15;13,20
22.03.2024;21:00;13,30
22.03.2024;20:45;13,30
22.03.2024;20:30;13,30
22.03.2024;20:15;13,40
22.03.2024;20:00;13,40
22.03.2024;19:45;13,40
22.03.2024;19:30;13,50
22.03.2024;19:15;13,50
22.03.2024;19:00;13,60
22.03.2024;18:45;13,60
22.03.2024;18:30;13,70
22.03.2024;18:15;13,70
22.03.2024;18:00;13,80
22.03.2024;17:45;13,80
22.03.2024;17:30;13,90
22.03.2024;17:15;13,90
22.03.2024;17:00;14,00
22.03.2024;16:45;14,00
22.03.2024;16:30;14,10
22.03.2024;16:15;14,10
22.03.2024;16:00;14,10
22.03.2024;15:45;14,10
22.03.2024;15:30;14,10
22.03.2024;15:15;14,10
22.03.2024;15:00;14,10
22.03.2024;14:45;14,10
22.03.2024;14:30;14,10
22.03.2024;14:15;14,10
22.03.2024;14:00;14,10
22.03.2024;13:45;14,10
22.03.2024;13:30;14,10
22.03.2024;13:15;14,10
22.03.2024;13:00;14,10
22.03.2024;12:45;14,10
22.03.2024;12:30;14,10
22.03.2024;12:15;14,10
22.03.2024;12:00;14,10
22.03.2024;11:45;14,10
22.03.2024;11:30;14,10
22.03.2024;11:15;14,10
22.03.2024;11:00;14,10
22.03.2024;10:45;14,10
22.03.2024;10:30;14,10
22.03.2024;10:15;14,10
22.03.2024;10:00;13,90
22.03.2024;09:45;13,70
22.03.2024;09:30;13,50
22.03.2024;09:15;13,40
22.03.2024;09:00;13,30
22.03.2024;08:45;13,10
22.03.2024;08:30;13,10
22.03.2024;08:15;13,10
22.03.2024;08:00;13,10
22.03.2024;07:45;13,10
22.03.2024;07:30;13,00
22.03.2024;07:15;13,00
22.03.2024;07:00;13,00
22.03.2024;06:45;13,00
22.03.2024;06:30;13,00
22.03.2024;06:15;13,00
22.03.2024;06:00;13,00
22.03.2024;05:45;13,00
22.03.2024;05:30;13,00
22.03.2024;05:15;13,00
22.03.2024;05:00;13,00
22.03.2024;04:45;13,00
22.03.2024;04:30;13,00
22.03.2024;04:15;13,00
22.03.2024;04:00;13,00
22.03.2024;03:45;13,00
22.03.2024;03:30;13,00
22.03.2024;03:15;13,00
22.03.2024;03:00;13,00
22.03.2024;02:45;13,00
22.03.2024;02:30;13,00
22.03.2024;02:15;13,00
22.03.2024;02:00;13,10
22.03.2024;01:45;13,10
22.03.2024;01:30;13,10
22.03.2024;01:15;13,10
22.03.2024;01:00;13,10
22.03.2024;00:45;13,10
22.03.2024;00:30;13,10
22.03.2024;00:15;13,10
22.03.2024;00:00;13,10
21.03.2024;23:45;13,10
21.03.2024;23:30;13,10
21.03.2024;23:15;13,10
21.03.2024;23:00;13,10
21.03.2024;22:45;13,10
21.03.2024;22:30;13,20
21.03.2024;22:15;13,20
21.03.2024;22:00;13,20
21.03.2024;21:45;13,20
21.03.2024;21:30;13,20
21.03.2024;21:15;13,30
21.03.2024;21:00;13,30
21.03.2024;20:45;13,30
21.03.2024;20:30;13,40
21.03.2024;20:15;13,40
21.03.2024;20:00;13,50
21.03.2024;19:45;13,50
21.03.2024;19:30;13,60
21.03.2024;19:15;13,60
21.03.2024;19:00;13,70
21.03.2024;18:45;13,80
21.03.2024;18:30;13,80
21.03.2024;18:15;13,90
21.03.2024;18:00;14,00
21.03.2024;17:45;14,00
21.03.2024;17:30;14,10
21.03.2024;17:15;14,10
21.03.2024;17:00;14,10
21.03.2024;16:45;14,10
21.03.2024;16:30;14,10
21.03.2024;16:15;14,10
21.03.2024;16:00;14,10
21.03.2024;15:45;14,10
21.03.2024;15:30;14,10
21.03.2024;15:15;14,10
21.03.2024;15:00;14,10
21.03.2024;14:45;14,10
21.03.2024;14:30;14,10
21.03.2024;14:15;14,10
21.03.2024;14:00;14,10
21.03.2024;13:45;14,10
21.03.2024;13:30;14,10
21.03.2024;13:15;14,10
21.03.2024;13:00;14,10
21.03.2024;12:45;14,10
21.03.2024;12:30;14,10
21.03.2024;12:15;14,10
21.03.2024;12:00;14,10
21.03.2024;11:45;14,10
21.03.2024;11:30;14,10
21.03.2024;11:15;14,10
21.03.2024;11:00;14,10
21.03.2024;10:45;14,10
21.03.2024;10:30;14,10
21.03.2024;10:15;14,10
21.03.2024;10:00;14,10
21.03.2024;09:45;14,10
21.03.2024;09:30;14,10
21.03.2024;09:15;14,00
21.03.2024;09:00;13,60
21.03.2024;08:45;13,30
21.03.2024;08:30;13,20
21.03.2024;08:15;13,20
21.03.2024;08:00;13,10
21.03.2024;07:45;13,10
21.03.2024;07:30;13,00
21.03.2024;07:15;13,00
21.03.2024;07:00;13,00
21.03.2024;06:45;13,00
21.03.2024;06:30;13,00
21.03.2024;06:15;13,00
21.03.2024;06:00;13,00
21.03.2024;05:45;13,00
21.03.2024;05:30;13,00
21.03.2024;05:15;13,00
21.03.2024;05:00;13,00
21.03.2024;04:45;13,00
21.03.2024;04:30;13,00
21.03.2024;04:15;13,00
21.03.2024;04:00;13,00
21.03.2024;03:45;13,00
21.03.2024;03:30;13,00
21.03.2024;03:15;13,00
21.03.2024;03:00;13,00
21.03.2024;02:45;13,00
21.03.2024;02:30;13,00
21.03.2024;02:15;13,00
21.03.2024;02:00;13,00
21.03.2024;01:45;13,00
21.03.2024;01:30;13,00
21.03.2024;01:15;13,10
21.03.2024;01:00;13,10
21.03.2024;00:45;13,10
21.03.2024;00:30;13,10
21.03.2024;00:15;13,10
21.03.2024;00:00;13,10
20.03.2024;23:45;13,10
20.03.2024;23:30;13,10
20.03.2024;23:15;13,10
20.03.2024;23:00;13,10
20.03.2024;22:45;13,10
20.03.2024;22:30;13,10
20.03.2024;22:15;13,20
20.03.2024;22:00;13,20
20.03.2024;21:45;13,20
20.03.2024;21:30;13,20
20.03.2024;21:15;13,20
20.03.2024;21:00;13,30
20.03.2024;20:45;13,30
20.03.2024;20:30;13,30
20.03.2024;20:15;13,40
20.03.2024;20:00;13,40
20.03.2024;19:45;13,40
20.03.2024;19:30;13,50
20.03.2024;19:15;13,50
20.03.2024;19:00;13,60
20.03.2024;18:45;13,60
20.03.2024;18:30;13,70
20.03.2024;18:15;13,80
20.03.2024;18:00;13,80
20.03.2024;17:45;13,90
20.03.2024;17:30;14,00
20.03.2024;17:15;14,00
20.03.2024;17:00;14,10
20.03.2024;16:45;14,10
20.03.2024;16:30;14,10
20.03.2024;16:15;14,10
20.03.2024;16:00;14,10
20.03.2024;15:45;14,10
20.03.2024;15:30;14,10
20.03.2024;15:15;14,10
20.03.2024;15:00;14,10
20.03.2024;14:45;14,10
20.03.2024;14:30;14,10
20.03.2024;14:15;14,10
20.03.2024;14:00;14,10
20.03.2024;13:45;14,10
20.03.2024;13:30;14,10
20.03.2024;13:15;14,10
20.03.2024;13:00;14,10
20.03.2024;12:45;14,10
20.03.2024;12:30;14,10
20.03.2024;12:15;14,10
20.03.2024;12:00;14,10
20.03.2024;11:45;14,10
20.03.2024;11:30;14,10
20.03.2024;11:15;14,10
20.03.2024;11:00;14,10
20.03.2024;10:45;14,10
20.03.2024;10:30;14,10
20.03.2024;10:15;14,10
20.03.2024;10:00;14,10
20.03.2024;09:45;14,00
20.03.2024;09:30;13,80
20.03.2024;09:15;13,70
20.03.2024;09:00;13,50
20.03.2024;08:45;13,30
20.03.2024;08:30;13,20
20.03.2024;08:15;13,10
20.03.2024;08:00;13,00
20.03.2024;07:45;13,00
20.03.2024;07:30;13,00
20.03.2024;07:15;13,00
20.03.2024;07:00;13,00
20.03.2024;06:45;13,00
20.03.2024;06:30;13,00
20.03.2024;06:15;13,00
20.03.2024;06:00;13,00
20.03.2024;05:45;13,00
20.03.2024;05:30;13,00
20.03.2024;05:15;13,00
20.03.2024;05:00;13,00
20.03.2024;04:45;13,00
20.03.2024;04:30;13,00
20.03.2024;04:15;13,00
20.03.2024;04:00;13,00
20.03.2024;03:45;13,00
20.03.2024;03:30;13,00
20.03.2024;03:15;13,00
20.03.2024;03:00;13,00
20.03.2024;02:45;13,00
20.03.2024;02:30;13,00
20.03.2024;02:15;13,00
20.03.2024;02:00;13,00
20.03.2024;01:45;13,00
20.03.2024;01:30;13,00
20.03.2024;01:15;13,00
20.03.2024;01:00;13,00
20.03.2024;00:45;13,00
20.03.2024;00:30;13,00
20.03.2024;00:15;13,10
20.03.2024;00:00;13,10
19.03.2024;23:45;13,10
19.03.2024;23:30;13,10
19.03.2024;23:15;13,10
19.03.2024;23:00;13,10
19.03.2024;22:45;13,10
19.03.2024;22:30;13,10
19.03.2024;22:15;13,10
19.03.2024;22:00;13,20
19.03.2024;21:45;13,20
19.03.2024;21:30;13,20
19.03.2024;21:15;13,20
19.03.2024;21:00;13,30
19.03.2024;20:45;13,30
19.03.2024;20:30;13,30
19.03.2024;20:15;13,40
19.03.2024;20:00;13,40
19.03.2024;19:45;13,50
19.03.2024;19:30;13,50
19.03.2024;19:15;13,60
19.03.2024;19:00;13,60
19.03.2024;18:45;13,70
19.03.2024;18:30;13,70
19.03.2024;18:15;13,80
19.03.2024;18:00;13,90
19.03.2024;17:45;14,00
19.03.2024;17:30;14,00
19.03.2024;17:15;14,00
19.03.2024;17:00;14,10
19.03.2024;16:45;14,10
19.03.2024;16:30;14,10
19.03.2024;16:15;14,10
19.03.2024;16:00;14,10
19.03.2024;15:45;14,10
19.03.2024;15:30;14,10
19.03.2024;15:15;14,10
19.03.2024;15:00;14,10
19.03.2024;14:45;14,10
19.03.2024;14:30;14,10
19.03.2024;14:15;14,10
19.03.2024;14:00;14,10
19.03.2024;13:45;14,10
19.03.2024;13:30;14,10
19.03.2024;13:15;14,10
19.03.2024;13:00;14,10
19.03.2024;12:45;14,10
19.03.2024;12:30;14,10
19.03.2024;12:15;14,10
19.03.2024;12:00;14,10
19.03.2024;11:45;14,10
19.03.2024;11:30;14,10
19.03.2024;11:15;14,10
19.03.2024;11:00;14,10
19.03.2024;10:45;14,10
19.03.2024;10:30;14,10
19.03.2024;10:15;14,10
19.03.2024;10:00;14,10
19.03.2024;09:45;14,10
19.03.2024;09:30;14,10
19.03.2024;09:15;14,10
19.03.2024;09:00;14,10
19.03.2024;08:45;14,10
19.03.2024;08:30;13,50
19.03.2024;08:15;13,50
19.03.2024;08:00;13,20
19.03.2024;07:45;13,00
19.03.2024;07:30;12,80
19.03.2024;07:15;13,00
19.03.2024;07:00;12,90
19.03.2024;06:45;12,80
19.03.2024;06:30;12,70
19.03.2024;06:15;12,80
19.03.2024;06:00;12,80
19.03.2024;05:45;12,80
19.03.2024;05:30;12,70
19.03.2024;05:15;12,80
19.03.2024;05:00;12,90
19.03.2024;04:45;12,80
19.03.2024;04:30;12,70
19.03.2024;04:15;12,90
19.03.2024;04:00;12,90
19.03.2024;03:45;12,90
19.03.2024;03:30;12,80
19.03.2024;03:15;12,90
19.03.2024;03:00;12,90
19.03.2024;02:45;12,90
19.03.2024;02:30;12,90